Weather in Milogradovka

Russia / Omsk Oblast     54°05′37″N   73°40′16″E
temp.,
°C
wind,
m/s
gust,
m/s
humid.,
%
clouds,
%
prec.,
mm/h
press.,
hPa
HPBL,
m
19 september, sun
sun1900:00+9wsw5969100 0.1 10051101
03:00+8wsw51073100 0.2 10041120
06:00+8wsw7974100 0.5 10031198
09:00+7wnw7107583 0.2 1005947
12:00+10w8105196 0.3 10061792
15:00+10w9114097 0.0 10072007
18:00+8w8125022 0.0 10091711
21:00+5w71258100 0.0 10101006
20 september, mon
mon2000:00+5w8127087 0.0 10101139
03:00+4w8137277 0.0 10111010
06:00+4w8127279 0.0 1012914
09:00+4w8116893 0.0 10131243
12:00+6wnw81155100 0.1 10151594
15:00+6wnw81055100 0.1 10161512
18:00+6wnw7957100 0.3 10171416
21:00+4wnw5107471 0.1 1018648
21 september, tue
tue2100:00+2wnw488953 0.1 1019375
03:00+3nw6981100 0.0 1020743
06:00+3nw5879100 0.0 1021661
09:00+3nw6889100 0.1 1022634
12:00+3nw579092 0.5 1023630
15:00+6nw6758100 0.3 10231265
18:00+5nw575993 0.3 10241140
21:00+4nw4768100 0.0 1024770
22 september, wed
wed2200:00+4wnw4669100 0.1 1024588
03:00+2wnw3579100 0.0 1024176
06:00+2wsw3577100 0.0 1024172
09:00+4w576388 0.0 1023937
12:00+6w565097 0.0 10231514
15:00+8w574591 0.0 10211659
18:00+8wnw464690 0.0 10211515
21:00+4nnw22616 0.0 102111
23 september, thu
thu2300:00+4ssw226285 0.0 102120
03:00+4sw476399 0.0 1019135
06:00+4wsw4866100 0.0 1019220
09:00+5nw588298 0.0 1020593
12:00+7nw6756100 0.0 10201433
15:00+8nnw565398 0.0 10211373
18:00+6n565853 0.0 1022957
21:00+5nnw5657100 0.0 10241045